Showing default

IRIDE-MS2-HEO-1, 62697

Orbit data source: Space-Track

IRIDE-MS2-HEO-1, 62697 is an Italian payload satellite in SSO that was launched on Tue, 14 Jan 2025 UTC via an FALCON 9 launch vehicle from the Air Force Western Test Range (AFWTR). Payload-class satellites include a variety of spacecraft equipped with specific instruments for various scientific and technological missions. These include communications satellites like Starlink; space stations such as the ISS; scientific satellites like the Hubble; Earth observation satellites from companies like Planet Labs, Umbra, and HawkEye 360; GPS; miniature CubeSats for education and research; and military/defense satellites.

Loading next visibility...
Identifier
62697, 2025-009CS
Orbit
SSO
Country
Flag of ITIT
Related business
Manufacturer
ArgoTec
Mission
Operational Civil Imaging
Bus & Motor
HAWK, Unknown motor
Mass
65 kg wet, 65 kg dry
Launch date (UTC)
2025-01-14 (8 months ago)
Launch vehicle
FALCON 9
Launch site
Air Force Western Test Range (AFWTR)
Object type
Payload
Rocket body
Debris
Shape & HBR
Box + 2 Pan, 1.0 m
Radar Cross Section
0.683 m², Medium (>0.1 m² and < 1m²)

Expand to show TLE details & history
Last TLE update: 9 hours ago

TLE from 9 hours ago
0 IRIDE-MS2-HEO-1
1 62697U 25009CS  25259.24329842  .00002828  00000-0  27894-3 0  9996
2 62697  97.7302 337.5260 0002552 163.2997 196.8307 14.92780958 36441
Epoch: 2025-09-16T05:50Z
TLE epoch observation values (Epoch: 2025-09-16T05:50:20.983Z)
Latitude
-0.00001°
Longitude
-105.49782°
Altitude
594.015 km
Speed
7.562 km/s
True Right ascension
22h 30m 06s
True Declination
0° 00' 00"
Sunlit
Object was in full shadow at epoch
Visualization orbit readout
Latitude
Unknown
Longitude
Unknown
Altitude
Unknown
Speed
Unknown
Apparent Right ascension
Unknown
Apparent Declination
Unknown
Sunlit
N/A
Visualization observer readout
Local Sidereal Time
07:52:27
Azimuth
Unknown
Elevation
Unknown
Doppler factor
Unknown
Orbital elements
Apogee altitude
588.063 km
Perigee altitude
584.508 km
Semi-major axis
6,964.422 km
Eccentricity
0.00026
Inclination
97.7302°
RAAN
337.526°
Arg. of periapsis
163.2997°
True anomaly
196.82224°
Mean anomaly
196.8307°
Eccentric anomaly
196.82647°
Mean motion
3.73435 °/min
Orbital period
96.4 mins
BSTAR
0.00027894
Loading maneuver chart data...
Computing Atmospheric mass density...
Loading historical data...
Loading historical data...
Loading historical data...
Loading historical data...
Loading historical data...
Loading historical data...
Loading historical data...

Documentation

Showing up to 5 results
|